| time (UTC) | temp F | wind direction | speed MPH | gust MPH | rain 1hr in | rain 24hr in | rain mn in | humidity % | barometer mb |
| 20260510185804 | 83 | 0 | 0.0 | 0.0 | 0.00 | 0.00 | 0.00 | 41 | 1010.6 |
| 20260510185305 | 82 | 13 | 1.0 | 3.0 | 0.00 | 0.00 | 0.00 | 40 | 1010.7 |
| 20260510184803 | 82 | 289 | 3.0 | 3.0 | 0.00 | 0.00 | 0.00 | 41 | 1010.7 |
| 20260510183804 | 82 | 209 | 3.0 | 12.0 | 0.00 | 0.00 | 0.00 | 40 | 1010.9 |
| 20260510183303 | 82 | 266 | 3.0 | 10.0 | 0.00 | 0.00 | 0.00 | 39 | 1010.9 |
| 20260510182803 | 83 | 251 | 2.0 | 8.0 | 0.00 | 0.00 | 0.00 | 40 | 1010.8 |
| 20260510181803 | 83 | 287 | 6.0 | 10.0 | 0.00 | 0.00 | 0.00 | 41 | 1010.8 |
| 20260510181303 | 83 | 307 | 3.0 | 8.0 | 0.00 | 0.00 | 0.00 | 40 | 1010.9 |
| 20260510180804 | 83 | 302 | 2.0 | 9.0 | 0.00 | 0.00 | 0.00 | 39 | 1010.9 |
| 20260510180303 | 83 | 278 | 8.0 | 13.0 | 0.00 | 0.00 | 0.00 | 39 | 1011.0 |
| 20260510175803 | 83 | 316 | 7.0 | 13.0 | 0.00 | 0.00 | 0.00 | 41 | 1011.0 |
| 20260510175306 | 82 | 299 | 4.0 | 17.0 | 0.00 | 0.00 | 0.00 | 44 | 1011.0 |
| 20260510174803 | 82 | 341 | 5.0 | 12.0 | 0.00 | 0.00 | 0.00 | 41 | 1011.1 |
| 20260510174303 | 81 | 295 | 3.0 | 12.0 | 0.00 | 0.00 | 0.00 | 43 | 1011.1 |
| 20260510173803 | 81 | 303 | 6.0 | 13.0 | 0.00 | 0.00 | 0.00 | 42 | 1011.1 |
| 20260510173303 | 81 | 249 | 7.0 | 10.0 | 0.00 | 0.00 | 0.00 | 42 | 1011.2 |
| 20260510172803 | 81 | 236 | 2.0 | 9.0 | 0.00 | 0.00 | 0.00 | 42 | 1011.1 |
| 20260510172306 | 81 | 218 | 2.0 | 9.0 | 0.00 | 0.00 | 0.00 | 42 | 1011.2 |
| 20260510171803 | 81 | 311 | 7.0 | 12.0 | 0.00 | 0.00 | 0.00 | 42 | 1011.2 |
| 20260510171303 | 81 | 267 | 5.0 | 10.0 | 0.00 | 0.00 | 0.00 | 43 | 1011.2 |
| 20260510170803 | 81 | 234 | 2.0 | 8.0 | 0.00 | 0.00 | 0.00 | 44 | 1011.2 |
| 20260510170303 | 81 | 200 | 2.0 | 12.0 | 0.00 | 0.00 | 0.00 | 44 | 1011.2 |
| 20260510165804 | 81 | 258 | 7.0 | 12.0 | 0.00 | 0.00 | 0.00 | 44 | 1011.2 |
| 20260510165306 | 81 | 297 | 1.0 | 6.0 | 0.00 | 0.00 | 0.00 | 45 | 1011.2 |
| 20260510164804 | 81 | 297 | 5.0 | 10.0 | 0.00 | 0.00 | 0.00 | 45 | 1011.4 |
| 20260510164304 | 81 | 191 | 4.0 | 12.0 | 0.00 | 0.00 | 0.00 | 43 | 1011.4 |
| 20260510163803 | 81 | 294 | 6.0 | 14.0 | 0.00 | 0.00 | 0.00 | 45 | 1011.4 |
| 20260510163303 | 81 | 241 | 3.0 | 9.0 | 0.00 | 0.00 | 0.00 | 45 | 1011.4 |
| 20260510162803 | 80 | 201 | 5.0 | 12.0 | 0.00 | 0.00 | 0.00 | 46 | 1011.3 |
| 20260510162306 | 80 | 255 | 3.0 | 9.0 | 0.00 | 0.00 | 0.00 | 47 | 1011.3 |
| 20260510161804 | 80 | 285 | 6.0 | 12.0 | 0.00 | 0.00 | 0.00 | 49 | 1011.3 |
| 20260510161303 | 80 | 281 | 3.0 | 7.0 | 0.00 | 0.00 | 0.00 | 48 | 1011.3 |
| 20260510160803 | 80 | 280 | 3.0 | 7.0 | 0.00 | 0.00 | 0.00 | 48 | 1011.4 |
| 20260510155305 | 80 | 291 | 0.0 | 5.0 | 0.00 | 0.00 | 0.00 | 47 | 1011.4 |
| 20260510154303 | 80 | 280 | 5.0 | 10.0 | 0.00 | 0.00 | 0.00 | 49 | 1011.6 |
| 20260510153803 | 80 | 333 | 5.0 | 10.0 | 0.00 | 0.00 | 0.00 | 50 | 1011.6 |
| 20260510153304 | 79 | 326 | 4.0 | 9.0 | 0.00 | 0.00 | 0.00 | 49 | 1011.6 |
| 20260510152804 | 79 | 321 | 5.0 | 9.0 | 0.00 | 0.00 | 0.00 | 49 | 1011.7 |
| 20260510152306 | 79 | 293 | 6.0 | 10.0 | 0.00 | 0.00 | 0.00 | 48 | 1011.6 |
| 20260510151303 | 78 | 236 | 2.0 | 8.0 | 0.00 | 0.00 | 0.00 | 50 | 1011.6 |
| 20260510150803 | 78 | 341 | 2.0 | 5.0 | 0.00 | 0.00 | 0.00 | 50 | 1011.5 |
| 20260510145803 | 77 | 310 | 3.0 | 10.0 | 0.00 | 0.00 | 0.00 | 50 | 1011.5 |
| 20260510145306 | 77 | 261 | 4.0 | 12.0 | 0.00 | 0.00 | 0.00 | 51 | 1011.4 |
| 20260510144804 | 76 | 309 | 4.0 | 10.0 | 0.00 | 0.00 | 0.00 | 52 | 1011.3 |
| 20260510143803 | 76 | 296 | 4.0 | 9.0 | 0.00 | 0.00 | 0.00 | 54 | 1011.2 |
| 20260510143304 | 75 | 241 | 2.0 | 9.0 | 0.00 | 0.00 | 0.00 | 52 | 1011.2 |
| 20260510142803 | 75 | 219 | 5.0 | 8.0 | 0.00 | 0.00 | 0.00 | 53 | 1011.2 |
| 20260510142306 | 75 | 269 | 3.0 | 8.0 | 0.00 | 0.00 | 0.00 | 54 | 1011.1 |
| 20260510141303 | 75 | 139 | 2.0 | 5.0 | 0.00 | 0.00 | 0.00 | 61 | 1011.2 |
| 20260510140803 | 74 | 128 | 1.0 | 3.0 | 0.00 | 0.00 | 0.00 | 63 | 1011.2 |
| 20260510140303 | 73 | 301 | 1.0 | 3.0 | 0.00 | 0.00 | 0.00 | 65 | 1011.3 |
| 20260510135803 | 72 | 139 | 1.0 | 2.0 | 0.00 | 0.00 | 0.00 | 64 | 1011.3 |
| 20260510135305 | 72 | 118 | 1.0 | 5.0 | 0.00 | 0.00 | 0.00 | 66 | 1011.4 |
| 20260510134803 | 71 | 129 | 2.0 | 3.0 | 0.00 | 0.00 | 0.00 | 68 | 1011.5 |
| 20260510134304 | 70 | 65 | 1.0 | 2.0 | 0.00 | 0.00 | 0.00 | 69 | 1011.6 |
| 20260510133803 | 70 | 38 | 2.0 | 3.0 | 0.00 | 0.00 | 0.00 | 70 | 1011.6 |
| 20260510133303 | 69 | 175 | 1.0 | 2.0 | 0.00 | 0.00 | 0.00 | 72 | 1011.5 |
| 20260510132306 | 68 | 178 | 2.0 | 5.0 | 0.00 | 0.00 | 0.00 | 72 | 1011.5 |
| 20260510131805 | 68 | 193 | 1.0 | 3.0 | 0.00 | 0.00 | 0.00 | 73 | 1011.5 |
| 20260510131304 | 67 | 189 | 2.0 | 3.0 | 0.00 | 0.00 | 0.00 | 74 | 1011.3 |
| 20260510130804 | 67 | 167 | 2.0 | 3.0 | 0.00 | 0.00 | 0.00 | 76 | 1011.3 |
| 20260510130303 | 66 | 137 | 1.0 | 3.0 | 0.00 | 0.00 | 0.00 | 77 | 1011.4 |
| 20260510125803 | 65 | 137 | 1.0 | 3.0 | 0.00 | 0.00 | 0.00 | 80 | 1011.5 |
| 20260510125306 | 64 | 115 | 1.0 | 3.0 | 0.00 | 0.00 | 0.00 | 81 | 1011.6 |
| 20260510124803 | 63 | 117 | 2.0 | 3.0 | 0.00 | 0.00 | 0.00 | 83 | 1011.7 |
| 20260510124303 | 63 | 175 | 2.0 | 3.0 | 0.00 | 0.00 | 0.00 | 84 | 1011.7 |
| 20260510122306 | 60 | 140 | 3.0 | 5.0 | 0.00 | 0.00 | 0.00 | 88 | 1011.5 |
| 20260510121803 | 60 | 201 | 2.0 | 3.0 | 0.00 | 0.00 | 0.00 | 89 | 1011.5 |
| 20260510121303 | 59 | 201 | 3.0 | 5.0 | 0.00 | 0.00 | 0.00 | 89 | 1011.5 |
| 20260510120803 | 59 | 197 | 2.0 | 3.0 | 0.00 | 0.00 | 0.00 | 91 | 1011.5 |
| 20260510120303 | 59 | 218 | 2.0 | 3.0 | 0.00 | 0.00 | 0.00 | 92 | 1011.5 |
| 20260510115803 | 58 | 210 | 2.0 | 3.0 | 0.00 | 0.00 | 0.00 | 93 | 1011.4 |
| 20260510115306 | 58 | 155 | 2.0 | 3.0 | 0.00 | 0.00 | 0.00 | 94 | 1011.3 |
| 20260510114803 | 57 | 175 | 1.0 | 2.0 | 0.00 | 0.00 | 0.00 | 94 | 1011.3 |
| 20260510114304 | 57 | 175 | 0.0 | 1.0 | 0.00 | 0.00 | 0.00 | 94 | 1011.2 |
| 20260510113803 | 56 | 175 | 0.0 | 1.0 | 0.00 | 0.00 | 0.00 | 94 | 1011.1 |
| 20260510113303 | 56 | 175 | 1.0 | 2.0 | 0.00 | 0.00 | 0.00 | 94 | 1011.1 |
| 20260510111804 | 54 | 185 | 0.0 | 2.0 | 0.00 | 0.00 | 0.00 | 94 | 1010.9 |
| 20260510111303 | 54 | 185 | 1.0 | 2.0 | 0.00 | 0.00 | 0.00 | 94 | 1010.9 |
| 20260510110803 | 54 | 359 | 1.0 | 2.0 | 0.00 | 0.00 | 0.00 | 94 | 1010.8 |
| 20260510110303 | 53 | 359 | 0.0 | 2.0 | 0.00 | 0.00 | 0.00 | 94 | 1010.7 |
| 20260510105803 | 53 | 359 | 0.0 | 1.0 | 0.00 | 0.00 | 0.00 | 94 | 1010.7 |
| 20260510105306 | 53 | 359 | 1.0 | 2.0 | 0.00 | 0.00 | 0.00 | 94 | 1010.5 |
| 20260510104804 | 52 | 359 | 1.0 | 2.0 | 0.00 | 0.00 | 0.00 | 93 | 1010.5 |
| 20260510104304 | 52 | 359 | 1.0 | 2.0 | 0.00 | 0.00 | 0.00 | 93 | 1010.4 |
| 20260510103303 | 52 | 359 | 2.0 | 3.0 | 0.00 | 0.00 | 0.00 | 93 | 1010.3 |
| 20260510102803 | 52 | 4 | 2.0 | 3.0 | 0.00 | 0.00 | 0.00 | 92 | 1010.2 |
| 20260510101804 | 52 | 175 | 0.0 | 0.0 | 0.00 | 0.00 | 0.00 | 92 | 1009.9 |
| 20260510101303 | 52 | 175 | 0.0 | 0.0 | 0.00 | 0.00 | 0.00 | 92 | 1009.9 |
| 20260510100803 | 52 | 175 | 0.0 | 0.0 | 0.00 | 0.00 | 0.00 | 92 | 1009.8 |
| 20260510100303 | 52 | 175 | 0.0 | 2.0 | 0.00 | 0.00 | 0.00 | 92 | 1009.8 |
| 20260510095803 | 52 | 173 | 1.0 | 3.0 | 0.00 | 0.00 | 0.00 | 92 | 1009.8 |
| 20260510095305 | 52 | 335 | 1.0 | 2.0 | 0.00 | 0.00 | 0.00 | 92 | 1009.8 |
| 20260510094803 | 53 | 335 | 0.0 | 2.0 | 0.00 | 0.00 | 0.00 | 92 | 1009.7 |
| 20260510093304 | 53 | 352 | 2.0 | 5.0 | 0.00 | 0.00 | 0.00 | 92 | 1009.7 |
| 20260510092803 | 53 | 350 | 2.0 | 3.0 | 0.00 | 0.00 | 0.00 | 92 | 1009.7 |
| 20260510091803 | 53 | 5 | 1.0 | 2.0 | 0.00 | 0.00 | 0.00 | 92 | 1009.7 |
| 20260510090803 | 53 | 346 | 1.0 | 3.0 | 0.00 | 0.00 | 0.00 | 91 | 1009.7 |
| 20260510085804 | 53 | 346 | 1.0 | 3.0 | 0.00 | 0.00 | 0.00 | 91 | 1009.7 |
| 20260510084803 | 53 | 343 | 3.0 | 7.0 | 0.00 | 0.00 | 0.00 | 91 | 1009.6 |
| 20260510084303 | 53 | 2 | 0.0 | 3.0 | 0.00 | 0.00 | 0.00 | 91 | 1009.6 |
| 20260510083803 | 53 | 344 | 2.0 | 5.0 | 0.00 | 0.00 | 0.00 | 91 | 1009.6 |
| 20260510083303 | 53 | 0 | 3.0 | 5.0 | 0.00 | 0.00 | 0.00 | 91 | 1009.7 |
| 20260510082803 | 53 | 353 | 2.0 | 3.0 | 0.00 | 0.00 | 0.00 | 90 | 1009.5 |
| 20260510082306 | 53 | 310 | 2.0 | 3.0 | 0.00 | 0.00 | 0.00 | 90 | 1009.4 |
| 20260510081803 | 53 | 349 | 1.0 | 3.0 | 0.00 | 0.00 | 0.00 | 90 | 1009.3 |
| 20260510081304 | 53 | 349 | 1.0 | 2.0 | 0.00 | 0.00 | 0.00 | 90 | 1009.3 |
| 20260510080804 | 53 | 349 | 1.0 | 2.0 | 0.00 | 0.00 | 0.00 | 90 | 1009.2 |
| 20260510080304 | 53 | 349 | 2.0 | 3.0 | 0.00 | 0.00 | 0.00 | 90 | 1009.1 |
| 20260510075804 | 54 | 349 | 1.0 | 2.0 | 0.00 | 0.00 | 0.00 | 90 | 1009.1 |
| 20260510075306 | 54 | 349 | 2.0 | 2.0 | 0.00 | 0.00 | 0.00 | 90 | 1009.0 |
| 20260510074803 | 54 | 349 | 1.0 | 2.0 | 0.00 | 0.00 | 0.00 | 89 | 1008.9 |
| 20260510073803 | 54 | 349 | 0.0 | 1.0 | 0.00 | 0.00 | 0.00 | 89 | 1008.8 |
| 20260510073303 | 54 | 349 | 1.0 | 2.0 | 0.00 | 0.00 | 0.00 | 89 | 1008.7 |
| 20260510072306 | 54 | 349 | 2.0 | 5.0 | 0.00 | 0.00 | 0.00 | 89 | 1008.6 |
| 20260510071803 | 54 | 349 | 0.0 | 0.0 | 0.00 | 0.00 | 0.00 | 88 | 1008.6 |
| 20260510070303 | 55 | 349 | 0.0 | 1.0 | 0.00 | 0.00 | 0.00 | 88 | 1008.6 |
| 20260510065803 | 55 | 349 | 0.0 | 2.0 | 0.00 | 0.00 | 0.00 | 88 | 1008.6 |
| 20260510065306 | 55 | 349 | 2.0 | 3.0 | 0.00 | 0.00 | 0.00 | 88 | 1008.5 |
| 20260510064803 | 55 | 349 | 2.0 | 3.0 | 0.00 | 0.00 | 0.00 | 87 | 1008.5 |
| 20260510064303 | 55 | 349 | 1.0 | 2.0 | 0.00 | 0.00 | 0.00 | 87 | 1008.4 |
| 20260510063803 | 55 | 349 | 1.0 | 2.0 | 0.00 | 0.00 | 0.00 | 87 | 1008.3 |
| 20260510062803 | 56 | 349 | 1.0 | 2.0 | 0.00 | 0.00 | 0.00 | 87 | 1008.3 |
| 20260510062306 | 56 | 349 | 1.0 | 3.0 | 0.00 | 0.00 | 0.00 | 87 | 1008.3 |
| 20260510061804 | 56 | 349 | 1.0 | 2.0 | 0.00 | 0.00 | 0.00 | 87 | 1008.4 |
| 20260510061303 | 56 | 349 | 1.0 | 2.0 | 0.00 | 0.00 | 0.00 | 87 | 1008.4 |
| 20260510060804 | 56 | 349 | 1.0 | 3.0 | 0.00 | 0.00 | 0.00 | 87 | 1008.4 |
| 20260510060305 | 56 | 9 | 3.0 | 3.0 | 0.00 | 0.00 | 0.00 | 87 | 1008.3 |
| 20260510055804 | 56 | 343 | 0.0 | 0.0 | 0.00 | 0.00 | 0.00 | 87 | 1008.5 |
| 20260510055306 | 57 | 343 | 1.0 | 3.0 | 0.00 | 0.00 | 0.00 | 87 | 1008.5 |
| 20260510054804 | 57 | 343 | 1.0 | 2.0 | 0.00 | 0.00 | 0.00 | 86 | 1008.6 |
| 20260510054304 | 57 | 343 | 1.0 | 3.0 | 0.00 | 0.00 | 0.00 | 86 | 1008.6 |
| 20260510053804 | 57 | 351 | 2.0 | 3.0 | 0.00 | 0.00 | 0.00 | 86 | 1008.6 |
| 20260510053303 | 57 | 348 | 2.0 | 3.0 | 0.00 | 0.00 | 0.00 | 86 | 1008.6 |
| 20260510052803 | 57 | 355 | 3.0 | 3.0 | 0.00 | 0.00 | 0.00 | 85 | 1008.6 |
| 20260510052306 | 57 | 357 | 2.0 | 3.0 | 0.00 | 0.00 | 0.00 | 85 | 1008.6 |
| 20260510051803 | 57 | 357 | 2.0 | 3.0 | 0.00 | 0.00 | 0.00 | 85 | 1008.5 |
| 20260510051303 | 58 | 342 | 2.0 | 3.0 | 0.00 | 0.00 | 0.00 | 85 | 1008.5 |
| 20260510050803 | 58 | 356 | 2.0 | 3.0 | 0.00 | 0.00 | 0.00 | 85 | 1008.6 |
| 20260510045803 | 58 | 73 | 3.0 | 3.0 | 0.00 | 0.00 | 0.00 | 84 | 1008.6 |
| 20260510045306 | 58 | 73 | 1.0 | 3.0 | 0.00 | 0.00 | 0.00 | 84 | 1008.6 |
| 20260510044303 | 58 | 73 | 0.0 | 0.0 | 0.00 | 0.00 | 0.00 | 84 | 1008.6 |
| 20260510043803 | 59 | 73 | 0.0 | 0.0 | 0.00 | 0.00 | 0.00 | 84 | 1008.7 |
| 20260510043303 | 59 | 73 | 0.0 | 0.0 | 0.00 | 0.00 | 0.00 | 83 | 1008.6 |
| 20260510042804 | 59 | 73 | 0.0 | 0.0 | 0.00 | 0.00 | 0.00 | 83 | 1008.7 |
| 20260510041804 | 59 | 73 | 0.0 | 0.0 | 0.00 | 0.00 | 0.00 | 83 | 1008.6 |
| 20260510040803 | 60 | 73 | 0.0 | 0.0 | 0.00 | 0.00 | 0.00 | 83 | 1008.6 |
| 20260510040303 | 60 | 73 | 0.0 | 0.0 | 0.00 | 0.00 | 0.00 | 83 | 1008.6 |
| 20260510035804 | 60 | 73 | 0.0 | 0.0 | 0.00 | 0.00 | 0.00 | 82 | 1008.6 |
| 20260510035306 | 60 | 73 | 0.0 | 0.0 | 0.00 | 0.00 | 0.00 | 82 | 1008.6 |
| 20260510034804 | 60 | 73 | 1.0 | 3.0 | 0.00 | 0.00 | 0.00 | 82 | 1008.5 |
| 20260510034304 | 60 | 73 | 1.0 | 3.0 | 0.00 | 0.00 | 0.00 | 82 | 1008.5 |
| 20260510033803 | 60 | 73 | 0.0 | 0.0 | 0.00 | 0.00 | 0.00 | 82 | 1008.5 |
| 20260510033303 | 60 | 73 | 0.0 | 1.0 | 0.00 | 0.00 | 0.00 | 82 | 1008.5 |
| 20260510032306 | 60 | 73 | 0.0 | 2.0 | 0.00 | 0.00 | 0.00 | 82 | 1008.5 |
| 20260510031803 | 61 | 73 | 1.0 | 3.0 | 0.00 | 0.00 | 0.00 | 82 | 1008.6 |
| 20260510031304 | 61 | 73 | 1.0 | 3.0 | 0.00 | 0.00 | 0.00 | 82 | 1008.5 |
| 20260510030804 | 61 | 73 | 1.0 | 2.0 | 0.00 | 0.00 | 0.00 | 81 | 1008.4 |
| 20260510030303 | 61 | 73 | 1.0 | 3.0 | 0.00 | 0.00 | 0.00 | 81 | 1008.4 |
| 20260510025803 | 61 | 73 | 2.0 | 3.0 | 0.00 | 0.00 | 0.00 | 81 | 1008.4 |
| 20260510025306 | 61 | 73 | 2.0 | 3.0 | 0.00 | 0.00 | 0.00 | 81 | 1008.4 |
| 20260510024804 | 61 | 73 | 1.0 | 3.0 | 0.00 | 0.00 | 0.00 | 81 | 1008.4 |
| 20260510024303 | 61 | 73 | 2.0 | 3.0 | 0.00 | 0.00 | 0.00 | 80 | 1008.4 |
| 20260510023803 | 62 | 87 | 1.0 | 3.0 | 0.00 | 0.00 | 0.00 | 80 | 1008.3 |
| 20260510023303 | 62 | 96 | 2.0 | 6.0 | 0.00 | 0.00 | 0.00 | 80 | 1008.3 |
| 20260510022306 | 62 | 72 | 2.0 | 3.0 | 0.00 | 0.00 | 0.00 | 80 | 1008.3 |
| 20260510021803 | 62 | 78 | 2.0 | 7.0 | 0.00 | 0.00 | 0.00 | 79 | 1008.4 |
| 20260510021303 | 62 | 78 | 2.0 | 7.0 | 0.00 | 0.00 | 0.00 | 79 | 1008.4 |
| 20260510020803 | 62 | 84 | 2.0 | 6.0 | 0.00 | 0.00 | 0.00 | 79 | 1008.3 |
| 20260510015803 | 63 | 81 | 2.0 | 8.0 | 0.00 | 0.00 | 0.00 | 78 | 1008.3 |
| 20260510015306 | 63 | 69 | 3.0 | 5.0 | 0.00 | 0.00 | 0.00 | 78 | 1008.3 |
| 20260510014803 | 63 | 74 | 3.0 | 5.0 | 0.00 | 0.00 | 0.00 | 78 | 1008.2 |
| 20260510014303 | 63 | 105 | 2.0 | 6.0 | 0.00 | 0.00 | 0.00 | 78 | 1008.1 |
| 20260510013803 | 63 | 82 | 3.0 | 8.0 | 0.00 | 0.00 | 0.00 | 77 | 1008.2 |
| 20260510013303 | 63 | 87 | 3.0 | 8.0 | 0.00 | 0.00 | 0.00 | 77 | 1008.1 |
| 20260510012803 | 64 | 100 | 3.0 | 6.0 | 0.00 | 0.00 | 0.00 | 76 | 1008.1 |
| 20260510012306 | 64 | 146 | 2.0 | 5.0 | 0.00 | 0.00 | 0.00 | 75 | 1008.0 |
| 20260510011803 | 64 | 129 | 2.0 | 3.0 | 0.00 | 0.00 | 0.00 | 74 | 1007.8 |
| 20260510011303 | 64 | 101 | 3.0 | 6.0 | 0.00 | 0.00 | 0.00 | 74 | 1007.7 |
| 20260510010803 | 64 | 146 | 2.0 | 3.0 | 0.00 | 0.00 | 0.00 | 73 | 1007.7 |
| 20260510010304 | 64 | 159 | 2.0 | 3.0 | 0.00 | 0.00 | 0.00 | 73 | 1007.6 |
| 20260510005804 | 65 | 156 | 2.0 | 3.0 | 0.00 | 0.00 | 0.00 | 72 | 1007.6 |
| 20260510004803 | 65 | 151 | 3.0 | 5.0 | 0.00 | 0.00 | 0.00 | 71 | 1007.5 |
| 20260510004303 | 65 | 120 | 2.0 | 3.0 | 0.00 | 0.00 | 0.00 | 71 | 1007.5 |
| 20260510003804 | 66 | 121 | 2.0 | 3.0 | 0.00 | 0.00 | 0.00 | 71 | 1007.3 |
| 20260510003303 | 66 | 139 | 2.0 | 5.0 | 0.00 | 0.00 | 0.00 | 70 | 1007.3 |
| 20260510002306 | 66 | 118 | 3.0 | 3.0 | 0.00 | 0.00 | 0.00 | 70 | 1007.3 |
| 20260510001803 | 67 | 118 | 2.0 | 3.0 | 0.00 | 0.00 | 0.00 | 69 | 1007.3 |
| 20260510001303 | 67 | 106 | 1.0 | 3.0 | 0.00 | 0.00 | 0.00 | 69 | 1007.2 |
| 20260510000803 | 67 | 120 | 2.0 | 3.0 | 0.00 | 0.00 | 0.00 | 69 | 1007.2 |
| 20260510000304 | 67 | 106 | 2.0 | 3.0 | 0.00 | 0.00 | 0.00 | 69 | 1007.2 |
| 20260509235804 | 67 | 110 | 5.0 | 6.0 | 0.00 | 0.00 | 0.00 | 69 | 1007.2 |
| 20260509235306 | 68 | 113 | 2.0 | 6.0 | 0.00 | 0.00 | 0.00 | 68 | 1007.1 |
| 20260509234803 | 68 | 118 | 2.0 | 7.0 | 0.00 | 0.00 | 0.00 | 68 | 1007.0 |
| 20260509234303 | 68 | 114 | 3.0 | 7.0 | 0.00 | 0.00 | 0.00 | 68 | 1007.0 |
| 20260509233303 | 68 | 101 | 3.0 | 6.0 | 0.00 | 0.00 | 0.00 | 67 | 1007.0 |
| 20260509232805 | 68 | 131 | 4.0 | 8.0 | 0.00 | 0.00 | 0.00 | 67 | 1006.8 |
| 20260509232306 | 69 | 111 | 3.0 | 6.0 | 0.00 | 0.00 | 0.00 | 66 | 1006.8 |
| 20260509230804 | 69 | 141 | 3.0 | 5.0 | 0.00 | 0.00 | 0.00 | 65 | 1006.7 |
| 20260509230304 | 69 | 153 | 3.0 | 6.0 | 0.00 | 0.00 | 0.00 | 65 | 1006.7 |
| 20260509225306 | 69 | 144 | 3.0 | 3.0 | 0.00 | 0.00 | 0.00 | 64 | 1006.7 |
| 20260509224303 | 69 | 165 | 3.0 | 3.0 | 0.00 | 0.00 | 0.00 | 64 | 1006.7 |
| 20260509223303 | 69 | 102 | 4.0 | 7.0 | 0.00 | 0.00 | 0.00 | 63 | 1006.8 |
| 20260509222306 | 70 | 94 | 5.0 | 8.0 | 0.00 | 0.00 | 0.00 | 63 | 1006.9 |
| 20260509221803 | 70 | 145 | 3.0 | 5.0 | 0.00 | 0.00 | 0.00 | 63 | 1006.8 |
| 20260509220803 | 70 | 104 | 5.0 | 9.0 | 0.00 | 0.00 | 0.00 | 63 | 1006.9 |
| 20260509220303 | 70 | 133 | 5.0 | 12.0 | 0.00 | 0.00 | 0.00 | 64 | 1006.9 |
| 20260509215803 | 70 | 107 | 5.0 | 8.0 | 0.00 | 0.00 | 0.00 | 64 | 1006.8 |
| 20260509215306 | 70 | 107 | 3.0 | 7.0 | 0.00 | 0.00 | 0.00 | 64 | 1006.8 |
| 20260509214803 | 70 | 128 | 3.0 | 6.0 | 0.00 | 0.00 | 0.00 | 63 | 1006.9 |
| 20260509214303 | 70 | 105 | 4.0 | 7.0 | 0.00 | 0.00 | 0.00 | 63 | 1007.0 |
| 20260509213803 | 71 | 101 | 3.0 | 7.0 | 0.00 | 0.00 | 0.00 | 63 | 1007.0 |
| 20260509213303 | 71 | 133 | 6.0 | 10.0 | 0.00 | 0.00 | 0.00 | 62 | 1006.9 |
| 20260509212804 | 71 | 118 | 6.0 | 9.0 | 0.00 | 0.00 | 0.00 | 62 | 1006.9 |
| 20260509212306 | 72 | 152 | 5.0 | 9.0 | 0.00 | 0.00 | 0.00 | 62 | 1006.9 |
| 20260509211804 | 72 | 105 | 6.0 | 9.0 | 0.00 | 0.00 | 0.00 | 62 | 1006.9 |
| 20260509211304 | 72 | 117 | 5.0 | 9.0 | 0.00 | 0.00 | 0.00 | 62 | 1006.8 |
| 20260509210805 | 72 | 135 | 3.0 | 9.0 | 0.00 | 0.00 | 0.00 | 61 | 1006.8 |
| 20260509210303 | 72 | 86 | 2.0 | 8.0 | 0.00 | 0.00 | 0.00 | 61 | 1006.7 |
| 20260509205803 | 72 | 151 | 6.0 | 9.0 | 0.00 | 0.00 | 0.00 | 61 | 1006.7 |
| 20260509205306 | 72 | 175 | 1.0 | 3.0 | 0.00 | 0.00 | 0.00 | 60 | 1006.7 |
| 20260509204803 | 72 | 93 | 1.0 | 3.0 | 0.00 | 0.00 | 0.00 | 60 | 1006.6 |
| 20260509203804 | 72 | 157 | 7.0 | 9.0 | 0.00 | 0.00 | 0.00 | 61 | 1006.7 |
| 20260509203304 | 72 | 133 | 5.0 | 12.0 | 0.00 | 0.00 | 0.00 | 61 | 1006.6 |
| 20260509202803 | 71 | 135 | 5.0 | 9.0 | 0.00 | 0.00 | 0.00 | 61 | 1006.6 |
| 20260509201303 | 71 | 105 | 5.0 | 9.0 | 0.00 | 0.00 | 0.00 | 61 | 1006.8 |
| 20260509200803 | 71 | 174 | 4.0 | 8.0 | 0.00 | 0.00 | 0.00 | 61 | 1006.9 |
| 20260509200303 | 71 | 108 | 3.0 | 7.0 | 0.00 | 0.00 | 0.00 | 62 | 1007.0 |
| 20260509195306 | 71 | 146 | 1.0 | 7.0 | 0.00 | 0.00 | 0.00 | 61 | 1007.2 |
| 20260509193803 | 70 | 148 | 5.0 | 8.0 | 0.00 | 0.00 | 0.00 | 60 | 1007.5 |
| 20260509193303 | 70 | 180 | 3.0 | 8.0 | 0.00 | 0.00 | 0.00 | 60 | 1007.6 |
| 20260509192804 | 70 | 174 | 2.0 | 5.0 | 0.00 | 0.00 | 0.00 | 59 | 1007.4 |
| 20260509192305 | 70 | 129 | 3.0 | 8.0 | 0.00 | 0.00 | 0.00 | 59 | 1007.5 |
| 20260509191803 | 70 | 142 | 3.0 | 5.0 | 0.00 | 0.00 | 0.00 | 60 | 1007.5 |
| 20260509191303 | 70 | 138 | 5.0 | 9.0 | 0.00 | 0.00 | 0.00 | 59 | 1007.6 |
| 20260509190803 | 70 | 132 | 5.0 | 8.0 | 0.00 | 0.00 | 0.00 | 58 | 1007.7 |
| 20260509190303 | 70 | 135 | 4.0 | 9.0 | 0.00 | 0.00 | 0.00 | 59 | 1007.9 |